Tracking 19794 objects as of 21-Jul-2019
HD Live streaming from Space Station
objects crossing your sky now

BSAT-3A

Track BSAT-3A now!
BSAT-3A is classified as:


NORAD ID: 32019
Int'l Code: 2007-036B
Perigee: 35,784.0 km
Apogee: 35,804.1 km
Inclination: 0.1 °
Period: 1,436.1 minutes
Semi major axis: 42165 km
RCS: 12.5893 m2 (large)
Launch date: August 14, 2007
Source: Japan (JPN)
Launch site: FRENCH GUIANA (FRGUI)

BSAT-3a, is a 4,365-pound satellite for the Broadcasting Satellite System Corp. of Japan.
aabbcc
Your satellite tracking list
Your tracking list is empty




NASA's NSSDC Master Catalog

Two Line Element Set (TLE):
1 32019U 07036B   19200.77654566 -.00000357  00000-0  00000+0 0  9994
2 32019   0.0737 244.3385 0002390 291.6959 150.6386  1.00270707 43749
Source of the keplerian elements: AFSPC